Back to catalog

STARLINK-30467

AliveCommunicationsVLEO
NORAD 57895·PAYLOAD·🇺🇸 United States

Launched Sep 20, 2023 from Cape Canaveral Space Force Station

Loading…

Next Passes (next 24 hours)

TLE

FreshSource: CelesTrak SupGP

Epoch: Sep 15, 2026, 02:30 UTC

1 57895C 23146E   26258.10465278  .00037234  00000+0  13485-2 0  2585
2 57895  43.0013 324.2625 0001638 262.6269 236.0524 15.27561371    13

Track STARLINK-30467 in real time with AllMySat

Download on the App Store